www.pogodaiklimat.ru

АРХИВ ПОГОДЫ в Детройте

Время (UTC), дата Ветер
(напр.,м/с)
 
Видим.   Явления Облачность Т
(С)
Тd
(С)
f
(%)
Тe
(С)
Тes
(С)
Комфортность

P
(гПа)

Po
(гПа)
Тmin
(С)
Tmax
(С)
R
(мм)
SD
(см)
22:53 20.03 Ю  10 км  слабый дождь  10/10 900 м  +5.6  +1.7  76  +1  +1    1016.2  992.3  +5.0  +9.4  0.8   
23:02 20.03 Ю  11 км  слабый дождь  10/10 780 м  +5.6  +1.7  76  +1  +1      992.3         
23:53 20.03 Ю  10 км  слабый дождь  10/10 750 м  +5.0  +2.2  82  +1  +1    1015.9  992.3         
00:53 21.03 Ю  11 км  слабый дождь  10/10 600 м  +5.0  +2.2  82  +1  +1    1015.7  992.0         
01:53 21.03 Ю  10 км  слабый дождь, дымка  10/10 450 м  +4.4  +2.2  86  -1  -1    1015.2  991.6      1.0   
01:57 21.03 Ю  6 км  слабый дождь, дымка  10/10 270 м  +4.4  +2.2  86  -1  -1      991.6         
02:05 21.03 Ю  4 км  слабый дождь, дымка  10/10 270 м  +4.4  +2.2  86  -1  -1      991.6         
02:13 21.03 Ю  6 км  слабый дождь, дымка  10/10 270 м  +4.4  +2.2  86  -1  -1      991.3         
02:31 21.03 Ю  11 км    10/10 360 м  +4.4  +2.2  86  -1  -1      991.0         
02:53 21.03 Ю  14 км    10/10 420 м  +4.4  +2.2  86  -1  -1    1014.5  991.0         
03:10 21.03 Ю  10 км  слабый дождь, дымка  10/10 210 м  +4.4  +2.2  86  -0  -0      991.0         
03:53 21.03 Ю  8 км  слабый дождь, дымка  10/10 210 м  +4.4  +2.2  86  -0  -0    1014.0  990.7         
04:43 21.03 Ю  5 км  слабая морось, дымка  10/10 240 м  +4.4  +2.2  86  0  0      990.0         
04:53 21.03 Ю  5 км  слабая морось, дымка  10/10 240 м  +4.4  +2.2  86  0  0    1013.6  990.0  +4.4  +5.6  1.0   
05:11 21.03 Ю  3 км  слабая морось, дымка  10/10 180 м  +3.9  +2.8  93  -1  -1      990.0         
05:40 21.03 Ю  н/о  слабый дождь, дымка  10/10 120 м  +3.9  +2.8  93  -0  -0      990.0         
05:48 21.03 Ю  2 км  слабый дождь, дымка  10/10 90 м  +4.0  +3.0  93  0  0      989.7         
05:53 21.03 Ю  2 км  слабый дождь, дымка  10/10 90 м  +3.9  +2.8  93  -0  -0    1013.4  989.7         
06:53 21.03 Ю  2 км  слабый дождь, дымка  10/10 90 м  +3.9  +2.8  93  +1  +1    1012.8  989.3         
07:53 21.03 Ю  2 км  слабый дождь, дымка  10/10 90 м  +4.4  +2.8  89  +2  +2    1012.5  989.0         
08:28 21.03 Ю  1 км  слабый дождь, дымка  ?/?  +4.4  +2.8  89  +2  +2      989.0         
08:48 21.03   800 м  туман  ?/?  +4.0  +3.0  93  +3  +3      988.7         
08:53 21.03   800 м  туман  ?/?  +4.4  +3.3  93  +3  +3    1012.3  988.7         
09:15 21.03   400 м  туман  ?/?  +4.4  +3.3  93  +3  +3      988.7         
09:53 21.03   400 м  туман  ?/?  +4.4  +3.3  93  +3  +3    1012.3  988.7         
10:07 21.03 З  800 м  туман  ?/?  +4.4  +2.8  89  +2  +2      989.0         
10:39 21.03 З  1 км  дымка  ?/?  +3.9  +2.8  93  0  0      989.0         
10:53 21.03 З  1 км  дымка  ?/?  +3.9  +2.8  93  +1  +1    1012.7  989.3  +3.9  +4.4     
11:53 21.03 СЗ  2 км  дымка  10/10 120 м  +4.4  +2.8  89  +1  +1    1012.9  989.3         
11:59 21.03 СЗ  3 км  дымка  10/10 120 м  +4.4  +2.8  89  +1  +1      989.3         
12:10 21.03 СЗ  3 км  дымка  10/10 150 м  +4.4  +2.8  89  +1  +1      989.3         
12:53 21.03 С  4 км  дымка  10/10 180 м  +4.4  +2.8  89  -0  -0    1013.1  989.7         
13:04 21.03 СЗ  6 км  дымка  10/10 180 м  +5.0  +2.8  86  +1  +1      989.3         
13:53 21.03 С  11 км    10/10 300 м  +6.1  +2.8  79  +3  +3    1013.1  989.7         
14:53 21.03 СЗ  16 км    10/10 480 м  +5.6  +1.1  73  +2  +2    1013.1  989.7         
15:53 21.03 СЗ  16 км    10/10 510 м  +6.1  +1.1  70  +2  +2    1013.2  989.7         
16:53 21.03 СЗ  16 км    10/10 510 м  +6.1  +1.1  70  +3  +3    1013.1  989.7  +3.9  +6.1     
17:53 21.03 СЗ  13 км    10/10 510 м  +5.6  +0.6  70  +3  +3    1012.4  989.0         
18:53 21.03 СЗ  13 км    10/10 510 м  +5.6  0.0  67  +2  +2    1012.4  989.0         
19:53 21.03 З  13 км    10/10 510 м  +5.0  0.0  70  0  0    1012.3  988.7         
20:53 21.03 З  13 км    10/10 540 м  +5.0  0.0  70  +1  +1    1012.2  988.7         
21:39 21.03 З  11 км    10/10 420 м  +3.9  -0.6  72  -2  -2      989.0         
21:53 21.03 З  11 км    10/10 390 м  +3.3  -0.6  76  -2  -2    1012.4  988.7         
22:36 21.03 З  13 км    10/10 450 м  +3.3  -1.1  73  -1  -1      989.0         
22:53 21.03 З  14 км    10/10 450 м  +3.3  -1.1  73  -1  -1    1012.5  989.0  +3.3  +6.1     
23:53 21.03 З  14 км    10/10 510 м  +3.3  -0.6  76  -1  -1    1012.5  989.0         
00:39 22.03 З  14 км    10/10 510 м  +3.9  -0.6  72  +1  +1      989.0         
00:53 22.03 З  14 км    10/10 510 м  +3.9  -0.6  72  +1  +1    1012.4  988.7         

 

Местоположение метеостанции Detroit Metropolitan Wayne County Airport: широта 42.2314 долгота -83.3308 высота над уровнем моря 194 м.

В архиве по умолчанию представлена погода в Детройте за последние 1-2 суток. Обновление информации о фактической погоде в базе происходит ежечасно! Архивные данные за месяц целиком и за предыдущие месяцы Вы можете получить, выбрав интересующий диапазон дат из раскрывающегося списка и нажав кнопку "Ввод!".

Внимание! Архив погоды МЕТАР в базе сайта в настоящее время начинается c 1 января 2011 г. Нет смысла пытаться выбрать более раннюю дату.

Внимание! Время в таблицах - всемирное. Для получения местного времени необходимо прибавить поправку, которая в Детройте равна -5 ч.

Ветер - указаны скорость ветра в м/с и направление, откуда дует ветер: С - северный, СВ - северо-восточный, В - восточный, ЮВ - юго-восточный, Ю - южный, ЮЗ - юго-западный, З - западный, СЗ - северо-западный.
Видимость - горизонтальная дальность видимости в метрах или километрах. При видимости от 1 до 10 км при отсутствии осадков обычно наблюдается дымка, при ухудшении видимости до 1 км и менее - туман. В сухую погоду видимость может ухудшаться дымом, пылью или мглою.
Атмосферные явления - указаны явления, наблюдавшиеся в указанный момент времени.
Облачность - указаны через наклонную черту верхняя и нижняя облачность в баллах и высота нижней границы облаков в метрах. Внимание: облачность, как и прочие метеорологические величины в США измеряются автоматическими метеостанциями. Указанные значения в баллах носят условный характер и показывают процент времени, в течение которого, в среднем, лазерный луч высотомера отражался от облаков обратно.
T - Температура воздуха - температура, измеренная на высоте 2 м над землей.
Td - Температура точки росы - температура, при понижении до которой содержащийся в воздухе водяной пар достигнет насыщения.
f - Относительная влажность воздуха - влажноcть воздуха, измеренная на высоте 2 м над землей.
Te - Эффективная температура - температура, которую ощущает одетый по сезону человек в тени. Характеристика душности погоды. При расчете учитывается влияние влажности воздуха и скорости ветра на теплоощущения человека.
Tes - Эффективная температура на солнце - температура, которую ощущает человек, с поправкой на солнечный нагрев. Характеристика знойности погоды. Зависит от высоты солнца над горизонтом, облачности и скорости ветра. Ночью, в пасмурную погоду, а также при ветре 12 м/с и более поправка равна нулю.
P - Атмосферное давление - приведенное к уровню моря атмосферное давление.
Po - Атмосферное давление - измеренное на уровне метеостанции атмосферное давление.
Tmin - Минимальная температура - минимум температуры воздуха на высоте 2 м над землей.
Tmax - Максимальная температура - максимум температуры воздуха на высоте 2 м над землей.
R - Количество осадков - Количество выпавших осадков за 3 или 6 часов, мм.
SD - Снежный покров - Высота снежного покрова, см.